Presure
119 124 122 125 104 105 119 112 103 112 74 127 99 135 110 121 111 123 112 135 105 117 111 114 111 129 130 125 111 129 114 116 123 120 123 125 101 110 119 114 115 113 120
123 119 123 110 110 86 99 101 103 128 127 116 95 121 101 95 108 129 127 114 108 130 131 112 125 117 108 125 133 136 138 136 118 112 125 111 113 108 95 110 116 106 131
130 121 131 131 123 105 123 111 110 135 109 122 138 89 112 134 131 104 144 115 126 132 134 90 106 95 134 120 134 105 124 139 91 109 136 135 111 109 110 109 109 124 117
131 130 148 127 125 113 104 114 122 118 133 122 102 104 120 127 129 142 90 138 107 131 144 143 127 127 117 129 124 133 118 117 109 122 103 108 117 113 113 129 117 117 145
131 122 127 117 136 136 132 125 131 92 113 98 135 140 136 142 136 139 134 123 120 140 147 129 115 134 118 134 106 113 123 118 116 119 112 124 126 116 122 131 142 130 165
129 129 136 135 100 83 123 107 89 119 134 102 127 143 148 131 130 137 122 149 108 137 113 110 87 130 134 107 113 107 104 115 110 120 217 225 214 219 191 134 125 130 204
139 110 127 131 87 132 99 97 107 128 101 129 135 117 144 140 118 143 111 133 151 132 110 110 140 132 122 129 128 127 109 112 142 213 147 204 205 213 175 191 199 191 193
120 128 120 109 106 117 134 114 103 125 107 134 146 137 129 112 109 128 122 149 134 121 130 136 133 118 118 117 118 121 136 129 132 120 187 217 209 199 195 192 204 191 199
152 138 120 111 116 137 124 127 103 143 117 155 126 109 127 131 118 109 159 119 111 138 120 127 123 120 111 134 129 143 165 237 220 196 207 195 210 208 193 204 195 194 177
102 110 133 111 136 80 143 137 142 151 155 117 130 145 121 126 143 119 115 137 125 121 117 121 132 131 127 133 136 130 232 224 213 191 199 214 200 212 191 198 203 195 194
145 133 141 140 141 114 143 141 130 134 123 118 108 124 119 110 120 118 119 124 124 125 121 128 135 128 132 136 216 205 197 202 204 208 194 200 201 196 191 193 200 202 197
133 121 142 113 134 118 123 108 133 110 116 116 109 107 124 112 115 119 118 116 119 129 126 132 123 135 193 198 209 204 199 203 194 193 207 201 195 193 192 211 223 209 208
135 131 139 138 137 115 138 131 114 129 141 113 115 124 144 126 117 120 117 123 122 129 130 132 133 206 205 205 205 198 198 201 207 205 201 206 204 205 196 225 222 235 224
104 132 165 145 123 132 126 122 119 147 141 120 137 120 121 120 125 126 126 128 135 133 117 217 198 213 196 201 208 198 198 197 191 198 200 200 194 209 238 233 225 230 208
151 171 153 118 123 139 129 143 132 127 117 140 121 118 124 122 129 126 127 167 133 142 185 192 222 209 208 200 194 193 196 203 204 202 203 242 215 229 207 213 202 210 209
167 124 121 146 150 123 123 133 120 116 123 119 120 124 127 129 132 130 139 132 170 121 202 200 191 202 216 194 193 154 204 199 196 222 219 203 198 229 207 201 202 211 215
123 134 141 169 120 124 141 133 110 121 118 125 124 129 132 139 126 131 131 147 198 191 188 215 203 191 196 193 193 213 221 227 237 215 224 204 200 203 209 207 213 212 202
151 144 124 115 120 118 118 117 119 121 124 119 126 129 127 142 156 218 217 195 208 199 197 200 180 191 196 194 191 209 223 214 226 209 203 200 213 212 209 217 202 202 204
126 114 120 170 115 117 122 124 134 122 119 126 125 138 143 210 134 177 205 194 220 193 190 189 191 197 223 228 225 223 215 206 203 210 213 209 216 219 215 211 206 207 218
138 200 199 164 124 133 123 131 124 122 123 126 132 134 198 202 197 173 191 191 190 190 221 220 222 218 228 217 208 204 207 209 208 207 206 208 212 205 205 209 216 224 218
123 117 144 141 118 116 119 126 127 129 132 134 171 146 204 195 194 195 194 195 209 222 216 222 221 209 202 203 208 212 209 211 211 206 205 209 198 205 216 221 244 244 246
176 141 119 126 125 138 132 125 127 130 196 189 134 206 205 213 228 229 223 217 216 224 211 204 201 197 205 203 203 222 227 221 214 209 202 205 214 222 235 236 234 235 251
166 167 203 139 132 129 140 143 179 202 210 204 225 225 223 219 215 212 220 218 206 206 197 204 195 202 212 223 221 208 202 199 202 207 215 226 236 229 227 233 239 243 267
129 134 194 210 211 217 216 225 241 230 194 215 213 215 214 223 218 209 205 199 199 204 197 198 210 211 202 200 196 192 203 205 213 221 233 223 222 226 230 237 242 267 265
223 220 218 226 227 213 197 227 228 220 216 215 233 224 206 205 203 195 203 205 200 196 199 213 195 203 200 196 201 203 214 213 207 241 229 227 227 229 237 268 268 265 269
212 219 216 212 209 214 213 214 223 240 226 226 221 205 197 195 203 202 202 196 196 213 208 195 201 194 196 193 203 211 214 228 240 229 224 226 234 242 268 268 268 268 272
Wind_Speed
48 49 52 53 42 47 48 44 37 36 22 42 34 54 36 44 36 44 39 57 44 50 46 46 49 61 65 58 52 69 53 55 61 58 64 68 53 62 70 65 68 63 73
53 49 51 50 52 25 33 33 32 50 49 38 38 35 39 34 39 54 55 43 48 67 66 52 57 51 51 62 67 71 74 74 58 61 71 63 66 63 54 66 74 58 81
57 52 59 62 61 46 61 42 34 56 39 39 61 33 44 50 46 44 67 50 58 66 66 43 50 45 67 53 69 59 65 76 49 65 77 75 69 69 70 70 70 81 77
57 56 62 62 63 50 44 42 42 38 50 43 41 41 44 38 43 70 40 63 49 63 71 75 56 57 54 62 66 70 63 65 71 71 69 76 81 79 79 82 80 80 88
60 52 59 55 70 69 55 47 53 34 49 35 63 66 57 64 64 70 56 43 45 66 73 57 51 62 52 65 66 66 63 67 72 74 83 84 82 84 84 84 85 84 81
59 62 71 71 28 26 41 37 31 43 57 37 45 67 75 47 54 56 40 73 53 60 52 55 47 55 63 73 76 73 72 75 79 79 63 58 62 64 71 88 86 85 71
62 48 69 65 30 55 30 33 39 40 33 57 52 40 65 62 43 71 48 51 73 49 60 58 79 63 58 64 66 75 81 84 87 69 88 64 63 66 76 71 72 74 75
57 67 56 45 39 46 51 42 36 56 38 56 67 52 42 44 43 45 45 72 57 50 63 66 64 63 66 72 75 78 85 81 83 85 69 63 67 71 72 75 78 76 79
73 69 58 48 53 60 43 44 41 51 45 77 43 42 45 48 45 47 78 53 51 61 57 56 61 64 70 80 76 92 93 59 60 73 72 71 75 73 76 79 80 83 81
37 55 66 44 68 30 65 54 56 76 79 46 45 67 48 46 71 49 55 62 58 59 59 59 70 69 68 78 86 78 71 62 67 76 76 78 79 84 76 85 90 88 86
71 62 73 75 71 48 57 57 41 41 54 46 46 47 49 49 54 53 56 60 64 63 65 67 74 69 80 87 77 75 77 77 79 79 78 84 87 85 81 84 98 96 92
59 52 70 41 61 53 55 42 52 46 48 47 48 53 57 53 53 54 58 60 63 66 63 73 64 81 87 83 80 79 79 82 81 81 92 87 84 84 86 105 99 100 103
58 62 68 65 58 54 57 41 49 47 56 49 51 50 66 54 58 57 59 63 60 69 71 73 74 87 83 82 82 83 88 90 96 94 93 100 101 104 94 89 91 79 85
36 46 84 70 52 43 47 50 51 78 68 51 55 56 58 58 59 62 64 65 77 73 58 89 87 91 85 88 89 87 92 92 86 97 100 99 91 103 81 84 89 81 85
68 64 74 56 56 52 48 69 59 52 54 73 54 59 60 64 64 64 67 87 76 90 83 87 96 92 93 89 86 90 94 102 102 103 107 76 107 83 93 86 89 90 90
40 53 55 72 77 52 52 65 55 54 56 56 60 62 65 67 75 70 86 73 82 61 89 90 89 92 99 91 91 86 102 100 97 88 93 90 89 84 88 86 88 91 91
53 52 57 71 54 51 66 55 52 60 58 60 62 68 75 86 69 77 75 93 85 83 86 94 98 89 97 95 96 100 95 96 84 89 86 88 89 90 91 90 90 89 89
67 60 51 53 54 56 56 58 60 62 62 62 66 71 70 94 96 81 83 81 87 88 91 94 88 92 97 99 98 104 88 87 82 85 87 90 91 91 91 91 88 90 91
49 44 52 54 58 60 61 60 68 63 65 67 70 87 85 85 79 85 80 82 80 89 90 92 96 102 92 82 82 81 82 84 85 87 89 91 92 92 91 92 92 93 95
46 51 45 63 61 64 62 64 63 67 69 72 81 85 74 74 78 76 82 86 87 90 85 89 81 83 78 79 81 84 87 88 88 89 91 93 94 93 95 97 98 98 96
52 55 61 64 62 61 64 65 68 72 81 85 77 91 75 76 80 84 87 93 91 76 78 75 73 75 80 82 84 86 87 90 92 92 94 95 96 100 105 106 102 101 99
50 59 57 62 62 65 66 66 68 73 63 70 79 81 82 79 69 66 69 74 73 68 69 74 77 80 81 83 86 86 85 88 91 94 95 101 105 108 105 106 108 107 105
51 54 52 62 63 64 72 79 73 64 65 63 64 63 63 64 66 68 65 63 68 69 74 74 79 82 86 85 85 87 89 92 95 100 104 103 99 105 109 110 110 111 106
56 58 61 62 61 63 65 64 57 64 60 61 60 62 63 59 59 60 63 68 70 70 74 76 80 82 85 86 88 92 96 99 100 99 96 102 105 107 108 110 112 103 105
44 47 49 52 54 51 56 52 51 55 56 56 55 54 56 56 59 65 64 65 68 72 76 78 77 83 85 87 92 96 99 101 100 92 96 100 103 108 109 106 104 106 106
40 43 45 46 48 52 51 54 47 43 50 49 48 49 56 62 58 62 64 68 71 76 76 78 82 82 87 91 98 101 101 100 94 96 99 103 107 107 106 107 109 109 109
Wind_Direction
259 258 257 259 256 255 260 259 267 269 286 282 279 274 287 283 285 293 279 283 277 286 279 286 291 293 294 289 291 292 289 286 288 288 286 285 278 283 284 283 284 281 284
256 258 255 253 255 263 266 267 273 269 271 273 282 284 280 285 285 283 285 281 279 287 283 287 293 291 289 289 288 287 286 286 288 285 286 284 282 281 279 283 283 278 282
252 254 254 251 254 258 257 263 276 268 274 281 272 282 276 288 280 281 276 285 286 284 288 283 286 291 291 289 286 289 290 285 283 288 285 282 284 285 283 283 283 279 283
253 253 239 252 252 256 260 266 271 275 271 281 281 292 287 290 292 284 290 284 282 288 278 282 287 291 288 290 287 283 283 281 287 283 290 286 281 283 284 281 281 282 283
252 251 250 249 249 253 262 265 271 272 271 281 281 284 291 287 287 285 287 287 289 284 282 285 288 287 285 289 286 284 289 283 281 279 281 277 276 281 283 281 283 278 286
250 250 248 252 270 254 265 261 267 271 278 279 287 283 282 293 273 293 280 285 287 288 280 278 290 292 289 284 277 285 288 273 279 279 292 278 285 278 287 280 281 279 293
244 260 251 255 268 260 266 270 273 280 279 276 285 283 282 284 275 281 277 291 283 289 284 284 284 294 283 292 285 280 279 279 293 292 289 293 294 288 287 289 292 288 291
247 249 255 270 277 271 268 273 277 274 274 278 285 286 286 282 277 286 279 284 291 280 278 289 290 277 276 275 276 277 291 276 282 276 290 293 294 295 292 290 296 291 298
239 249 258 269 267 263 271 275 280 275 274 272 283 280 279 285 282 282 280 281 278 296 279 284 278 274 276 295 285 296 293 296 293 292 301 294 301 298 295 296 299 298 293
267 263 254 272 262 267 268 273 280 273 277 279 288 290 285 288 295 284 281 297 287 282 281 285 296 289 283 293 293 287 305 296 296 296 299 295 301 300 297 300 299 298 297
245 253 249 253 259 272 272 274 278 288 283 276 285 283 284 283 287 283 284 290 284 289 286 293 297 289 294 292 302 302 298 301 301 298 298 299 299 298 297 299 301 298 298
251 259 251 266 264 273 270 277 283 275 275 277 282 285 284 283 284 284 284 282 283 292 289 296 284 295 296 299 303 302 303 301 300 299 301 299 298 299 298 304 300 299 297
252 252 257 260 269 273 274 275 276 274 289 274 277 276 290 278 277 278 278 284 282 295 293 292 292 295 297 300 302 304 302 302 301 299 301 300 301 300 303 300 300 300 300
270 258 246 258 271 272 272 273 273 278 286 280 290 280 283 282 286 287 287 289 296 293 281 292 296 293 299 301 301 304 301 303 301 304 302 301 302 300 302 302 302 302 300
253 247 253 262 268 274 275 274 280 281 282 283 286 288 289 290 290 288 290 291 294 295 289 294 291 292 291 299 302 302 302 300 302 303 302 300 301 300 299 299 300 302 300
244 251 257 263 263 266 269 278 283 282 284 286 286 289 290 293 295 293 296 293 292 290 287 291 296 298 297 301 302 296 300 299 299 300 296 299 297 298 298 296 297 299 298
252 256 265 256 264 268 274 281 285 281 285 288 291 292 296 295 290 292 293 294 287 293 293 287 290 300 300 300 300 299 299 296 297 296 299 296 296 296 298 298 296 296 295
253 261 258 270 268 273 275 278 279 284 286 286 290 292 291 290 287 277 280 286 286 290 293 293 297 299 297 296 296 293 294 294 298 295 295 294 296 296 296 294 292 291 291
254 267 266 251 274 274 275 278 281 284 285 289 290 293 291 272 293 285 283 291 289 292 294 296 295 293 291 295 296 296 295 293 293 296 297 296 296 295 294 293 291 291 291
256 253 250 263 269 276 278 281 282 283 285 287 288 290 277 284 288 290 291 291 290 292 290 289 291 293 297 295 294 294 296 298 298 297 297 297 296 294 294 293 292 292 290
255 262 267 268 275 281 281 280 282 285 285 286 283 285 281 284 285 283 283 284 285 288 289 293 296 294 294 296 298 298 299 298 298 297 296 296 295 296 296 295 295 294 292
260 264 272 267 272 275 277 278 281 282 277 280 287 279 281 282 283 282 283 285 288 293 293 293 295 294 297 297 298 301 299 299 299 299 298 297 298 297 296 296 296 296 296
263 266 269 269 270 273 274 276 275 275 278 280 283 283 282 282 283 285 289 290 290 293 291 296 294 300 302 303 304 303 302 301 301 301 300 299 298 297 297 297 298 298 297
265 264 262 264 267 269 271 278 280 278 280 282 283 284 285 286 288 289 287 287 289 295 293 298 302 302 303 304 303 301 302 302 301 300 298 297 296 296 297 298 298 297 295
260 263 265 267 270 271 275 278 279 278 279 281 278 281 284 284 284 284 290 294 293 295 298 301 302 302 303 302 303 303 303 300 300 299 298 296 297 297 298 301 299 297 295
261 268 266 268 269 270 275 277 281 274 277 275 277 275 276 280 286 288 293 293 297 300 301 301 302 302 302 303 304 303 301 301 301 300 300 299 299 300 304 302 300 298 296